Swansboro, NC

3:54 AM EDT on August 26, 2016 (GMT -0400)
Bogue McAlf

Weather History for KNJM - February, 2012

Change the Weather History Date:

Thursday, February 23, 2012

  Actual Average (KNKT) Record (KNKT)
Temperature  
Mean Temperature 59 °F -  
Max Temperature 63 °F 57 °F 73 °F (2012)
Min Temperature 55 °F 36 °F 27 °F (1999)
Degree Days  
Heating Degree Days 6    
Growing Degree Days 9 (Base 50)    
Moisture  
Dew Point 57 °F    
Average Humidity 91    
Maximum Humidity 97    
Minimum Humidity 82    
Precipitation  
Precipitation 0.10 in - - ()
Sea Level Pressure  
Sea Level Pressure 29.72 in    
Wind  
Wind Speed 9 mph (SW)    
Max Wind Speed 15 mph    
Max Gust Speed 26 mph    
Visibility 4 miles    
Events Fog , Thunderstorm    
Averages and records for this station are not official NWS values.
T = Trace of Precipitation, MM = Missing Value Source: NWS Daily Summary

Daily Weather History Graph

Daily Weather History Graph

Search for Another Location

Airport or City:

Trip Planner

Search our weather history database for the weather conditions in past years. The results will help you decide how hot, cold, wet, or windy it might be!

Date:

Astronomy

Feb. 23, 2012 Rise Set
Actual Time 6:45 AM EST 5:58 PM EST
Civil Twilight 6:19 AM EST 6:23 PM EST
Nautical Twilight 5:50 AM EST 6:53 PM EST
Astronomical Twilight 5:21 AM EST 7:22 PM EST
Moon 7:17 AM EST (2/23) 7:53 PM EST (2/23)
Length of Visible Light 12h 03m
Length of Day
11h 12m
Waxing Crescent, 3% of the Moon is Illuminated
Feb 23
Waxing Crescent
Feb 29
First Quarter
Mar 8
Full
Mar 14
Last Quarter
Mar 22
New

Hourly Weather History & Observations

Time (EST) Temp. Dew Point Humidity Pressure Visibility Wind Dir Wind Speed Gust Speed Precip Events Conditions
12:57 AM 57.0 °F 54.0 °F 89% 29.68 in - SW 9.2 mph - N/A   Partly Cloudy
1:57 AM 55.9 °F 54.0 °F 93% 29.67 in - WSW 8.1 mph - N/A   Clear
2:57 AM 57.9 °F 55.0 °F 90% 29.66 in - WSW 10.4 mph - N/A   Clear
3:57 AM 57.9 °F 55.0 °F 90% 29.69 in - West 5.8 mph - N/A Thunderstorm Thunderstorm
4:35 AM 59.0 °F 55.4 °F 88% 29.66 in - West 5.8 mph - 0.10 in   Mostly Cloudy
4:57 AM 59.0 °F 55.9 °F 90% 29.68 in - West 4.6 mph - 0.10 in   Clear
5:57 AM 57.0 °F 55.0 °F 93% 29.71 in - West 4.6 mph - N/A   Scattered Clouds
6:35 AM - - N/A% - - North - - N/A   Unknown
6:57 AM 55.0 °F 54.0 °F 96% 29.72 in - SW 4.6 mph - N/A   Clear
7:57 AM 55.9 °F 55.0 °F 97% 29.75 in - SW 5.8 mph - N/A   Partly Cloudy
8:57 AM 59.0 °F 57.0 °F 93% 29.75 in - SW 5.8 mph - N/A   Clear
9:57 AM 57.9 °F 55.9 °F 93% 29.78 in - SW 8.1 mph - N/A   Partly Cloudy
10:14 AM 57.2 °F 55.4 °F 94% 29.76 in 0.5 mi SW 8.1 mph - N/A Fog Fog
10:57 AM 57.9 °F 55.9 °F 93% 29.77 in 0.5 mi SW 8.1 mph - N/A Fog Fog
11:04 AM 57.2 °F 55.4 °F 94% 29.76 in - SW 9.2 mph - N/A   Overcast
11:57 AM 61.0 °F 57.9 °F 90% 29.75 in - SW 12.7 mph - N/A   Overcast
12:38 PM 62.6 °F 57.2 °F 82% 29.72 in - SSW 12.7 mph - N/A   Mostly Cloudy
12:57 PM 62.1 °F 57.9 °F 86% 29.72 in - SW 10.4 mph - N/A   Overcast
1:57 PM 63.0 °F 59.0 °F 87% 29.71 in - SW 8.1 mph - N/A   Scattered Clouds
2:57 PM 62.1 °F 57.9 °F 86% 29.70 in - SW 11.5 mph - N/A   Clear
3:21 PM 62.6 °F 57.2 °F 82% 29.69 in - SW 12.7 mph - N/A   Partly Cloudy
3:57 PM 62.1 °F 57.9 °F 86% 29.71 in - SW 12.7 mph - N/A   Partly Cloudy
4:57 PM 61.0 °F 57.0 °F 87% 29.72 in 6.0 mi SW 10.4 mph - N/A   Haze
5:57 PM 60.1 °F 57.9 °F 93% 29.73 in 6.0 mi SW 10.4 mph - N/A   Haze
6:04 PM 60.8 °F 57.2 °F 88% 29.72 in - SW 10.4 mph - N/A   Haze
6:57 PM 61.0 °F 59.0 °F 93% 29.74 in 7.0 mi SW 12.7 mph 20.7 mph N/A   Clear
7:48 PM 60.8 °F 59.0 °F 94% 29.74 in - SW 9.2 mph - N/A   Partly Cloudy
7:57 PM 60.1 °F 59.0 °F 96% 29.75 in - SW 8.1 mph - N/A   Partly Cloudy
8:57 PM 61.0 °F 59.0 °F 93% 29.75 in - SW 9.2 mph - N/A   Clear
9:57 PM 61.0 °F 59.0 °F 93% 29.75 in - SW 10.4 mph 21.9 mph N/A   Clear
10:57 PM 62.1 °F 60.1 °F 93% 29.74 in - SW 13.8 mph - N/A   Clear
11:57 PM 62.1 °F 59.0 °F 90% 29.74 in 7.0 mi SW 15.0 mph 26.5 mph N/A   Partly Cloudy